• In Austria
  • List of Countries
  • For 7 days
  • Water Temperature
  • Satellite Maps
  • Weather Map
  • News
  • Weather Widgets
  • user-avatar
    Login

    Hourly Weather Marrakesh

    Today, 19 September, Wednesday

    Time Temperature Precipitation Wind Pressure Humidity
    00:00 +28°C° 0 mm 2 mps 724 mmHg 54%
    01:00 +28°C° 0 mm 2 mps 724 mmHg 53%
    02:00 +28°C° 0 mm 2 mps 723 mmHg 53%
    03:00 +28°C° 0 mm 2 mps 723 mmHg 51%
    04:00 +28°C° 0 mm 2 mps 723 mmHg 50%
    05:00 +28°C° 0 mm 2 mps 723 mmHg 49%
    06:00 +29°C° 0 mm 1 mps 724 mmHg 44%
    07:00 +30°C° 0 mm 1 mps 724 mmHg 38%
    08:00 +32°C° 0 mm 1 mps 724 mmHg 33%
    09:00 +33°C° 0 mm 1 mps 725 mmHg 30%
    10:00 +34°C° 0 mm 1 mps 725 mmHg 28%
    11:00 +36°C° 0 mm 2 mps 725 mmHg 25%
    12:00 +37°C° 0 mm 2 mps 725 mmHg 24%
    13:00 +37°C° 0 mm 3 mps 724 mmHg 24%
    14:00 +37°C° 0 mm 4 mps 724 mmHg 23%
    15:00 +36°C° 0 mm 4 mps 724 mmHg 26%
    16:00 +36°C° 0 mm 4 mps 724 mmHg 28%
    17:00 +35°C° 0 mm 4 mps 724 mmHg 30%
    18:00 +34°C° 0 mm 4 mps 724 mmHg 34%
    19:00 +33°C° 0 mm 3 mps 725 mmHg 38%
    20:00 +31°C° 0 mm 3 mps 725 mmHg 42%
    21:00 +31°C° 0 mm 2 mps 725 mmHg 43%
    22:00 +30°C° 0 mm 2 mps 725 mmHg 45%
    23:00 +30°C° 0 mm 1 mps 725 mmHg 47%

    Tomorrow, 20 September, Thursday

    Time Temperature Precipitation Wind Pressure Humidity
    00:00 +30°C° 0 mm 1 mps 724 mmHg 48%
    01:00 +29°C° 0 mm 1 mps 724 mmHg 49%
    02:00 +29°C° 0 mm 1 mps 723 mmHg 50%
    03:00 +28°C° 0 mm 1 mps 723 mmHg 50%
    04:00 +28°C° 0 mm 1 mps 723 mmHg 51%
    05:00 +27°C° 0 mm 1 mps 723 mmHg 52%
    06:00 +29°C° 0 mm 1 mps 724 mmHg 48%
    07:00 +30°C° 0 mm 1 mps 724 mmHg 44%
    08:00 +31°C° 0 mm 2 mps 724 mmHg 40%
    09:00 +32°C° 0 mm 2 mps 724 mmHg 37%
    10:00 +34°C° 0 mm 2 mps 724 mmHg 34%
    11:00 +35°C° 0 mm 2 mps 724 mmHg 31%
    12:00 +35°C° 0 mm 3 mps 724 mmHg 29%
    13:00 +36°C° 0 mm 3 mps 723 mmHg 27%
    14:00 +36°C° 0 mm 4 mps 723 mmHg 26%
    15:00 +36°C° 0 mm 4 mps 723 mmHg 28%
    16:00 +35°C° 0 mm 4 mps 723 mmHg 29%
    17:00 +34°C° 0 mm 5 mps 723 mmHg 31%
    18:00 +33°C° 0 mm 5 mps 723 mmHg 36%
    19:00 +32°C° 0 mm 4 mps 724 mmHg 41%
    20:00 +29°C° 0 mm 4 mps 724 mmHg 46%
    21:00 +29°C° 0 mm 3 mps 724 mmHg 48%
    22:00 +28°C° 0 mm 2 mps 724 mmHg 50%
    23:00 +27°C° 0 mm 2 mps 724 mmHg 52%

    Day after tomorrow, 21 September, Friday

    Time Temperature Precipitation Wind Pressure Humidity
    00:00 +27°C° 0 mm 2 mps 723 mmHg 53%
    01:00 +27°C° 0 mm 1 mps 723 mmHg 54%
    02:00 +26°C° 0 mm 1 mps 723 mmHg 56%
    03:00 +26°C° 0 mm 1 mps 722 mmHg 57%
    04:00 +26°C° 0 mm 1 mps 722 mmHg 57%
    05:00 +25°C° 0 mm 1 mps 722 mmHg 58%
    06:00 +26°C° 0 mm 1 mps 723 mmHg 54%
    07:00 +28°C° 0 mm 2 mps 723 mmHg 50%
    08:00 +29°C° 0 mm 2 mps 723 mmHg 45%
    09:00 +30°C° 0 mm 3 mps 723 mmHg 41%
    10:00 +33°C° 0 mm 3 mps 723 mmHg 37%
    11:00 +34°C° 0 mm 4 mps 723 mmHg 33%
    12:00 +35°C° 0 mm 4 mps 723 mmHg 32%
    13:00 +35°C° 0 mm 4 mps 722 mmHg 30%
    14:00 +36°C° 0 mm 4 mps 722 mmHg 29%
    15:00 +36°C° 0 mm 4 mps 722 mmHg 29%
    16:00 +35°C° 0 mm 4 mps 722 mmHg 30%
    17:00 +35°C° 0 mm 4 mps 722 mmHg 31%
    18:00 +34°C° 0 mm 4 mps 722 mmHg 35%
    19:00 +33°C° 0 mm 4 mps 723 mmHg 38%
    20:00 +32°C° 0 mm 4 mps 723 mmHg 42%
    21:00 +30°C° 0 mm 3 mps 723 mmHg 44%
    22:00 +30°C° 0 mm 2 mps 723 mmHg 46%
    23:00 +29°C° 0 mm 2 mps 723 mmHg 48%

    22 September, Saturday

    Time Temperature Precipitation Wind Pressure Humidity
    00:00 +29°C° 0 mm 1 mps 722 mmHg 49%
    01:00 +29°C° 0 mm 1 mps 722 mmHg 50%
    02:00 +28°C° 0 mm 1 mps 722 mmHg 51%
    03:00 +28°C° 0 mm 1 mps 722 mmHg 51%
    04:00 +28°C° 0 mm 1 mps 722 mmHg 51%
    05:00 +27°C° 0 mm 1 mps 722 mmHg 51%
    06:00 +29°C° 0 mm 1 mps 723 mmHg 46%
    07:00 +30°C° 0 mm 2 mps 723 mmHg 41%
    08:00 +32°C° 0 mm 2 mps 724 mmHg 36%
    09:00 +35°C° 0 mm 2 mps 724 mmHg 31%
    10:00 +36°C° 0 mm 2 mps 724 mmHg 27%
    11:00 +38°C° 0 mm 2 mps 724 mmHg 22%
    12:00 +38°C° 0 mm 2 mps 723 mmHg 21%
    13:00 +37°C° 0 mm 1 mps 723 mmHg 20%
    14:00 +39°C° 0 mm 1 mps 723 mmHg 19%
    15:00 +39°C° 0 mm 2 mps 723 mmHg 19%
    16:00 +38°C° 0 mm 2 mps 723 mmHg 19%
    17:00 +38°C° 0 mm 3 mps 723 mmHg 19%
    18:00 +37°C° 0 mm 3 mps 724 mmHg 21%
    19:00 +36°C° 0 mm 4 mps 724 mmHg 23%
    20:00 +35°C° 0 mm 4 mps 724 mmHg 25%
    21:00 +35°C° 0 mm 3 mps 724 mmHg 26%
    22:00 +34°C° 0 mm 3 mps 724 mmHg 27%
    23:00 +34°C° 0 mm 3 mps 724 mmHg 28%

    23 September, Sunday

    Time Temperature Precipitation Wind Pressure Humidity
    00:00 +33°C° 0 mm 3 mps 724 mmHg 28%
    01:00 +32°C° 0 mm 2 mps 724 mmHg 29%
    02:00 +32°C° 0 mm 2 mps 723 mmHg 30%
    03:00 +31°C° 0 mm 2 mps 724 mmHg 30%
    04:00 +31°C° 0 mm 2 mps 724 mmHg 31%
    05:00 +30°C° 0 mm 2 mps 724 mmHg 32%
    06:00 +32°C° 0 mm 2 mps 724 mmHg 29%
    07:00 +34°C° 0 mm 2 mps 724 mmHg 26%
    08:00 +34°C° 0 mm 1 mps 725 mmHg 23%
    09:00 +35°C° 0 mm 1 mps 725 mmHg 21%
    10:00 +36°C° 0 mm 1 mps 725 mmHg 19%
    11:00 +37°C° 0 mm 1 mps 725 mmHg 18%
    12:00 +38°C° 0 mm 2 mps 724 mmHg 17%
    13:00 +39°C° 0 mm 2 mps 724 mmHg 17%
    14:00 +39°C° 0 mm 2 mps 724 mmHg 16%
    15:00 +38°C° 0.1 mm 3 mps 724 mmHg 17%
    16:00 +38°C° 0.1 mm 3 mps 724 mmHg 17%
    17:00 +37°C° 0.1 mm 4 mps 724 mmHg 18%
    18:00 +36°C° 0 mm 3 mps 725 mmHg 19%
    19:00 +35°C° 0 mm 3 mps 725 mmHg 21%
    20:00 +35°C° 0 mm 3 mps 726 mmHg 23%
    21:00 +34°C° 0 mm 2 mps 726 mmHg 24%
    22:00 +32°C° 0 mm 2 mps 726 mmHg 26%
    23:00 +32°C° 0 mm 2 mps 725 mmHg 28%

    24 September, Monday

    Time Temperature Precipitation Wind Pressure Humidity
    00:00 +31°C° 0 mm 2 mps 725 mmHg 30%
    01:00 +30°C° 0 mm 2 mps 725 mmHg 31%
    02:00 +30°C° 0 mm 2 mps 725 mmHg 33%
    03:00 +29°C° 0.1 mm 2 mps 725 mmHg 34%
    04:00 +29°C° 0.1 mm 2 mps 725 mmHg 35%
    05:00 +29°C° 0.1 mm 2 mps 725 mmHg 35%
    06:00 +30°C° 0 mm 2 mps 725 mmHg 32%
    07:00 +31°C° 0 mm 2 mps 725 mmHg 28%
    08:00 +34°C° 0 mm 2 mps 725 mmHg 24%
    09:00 +35°C° 0 mm 2 mps 725 mmHg 22%
    10:00 +35°C° 0 mm 1 mps 725 mmHg 20%
    11:00 +36°C° 0 mm 1 mps 725 mmHg 18%
    12:00 +36°C° 0.1 mm 1 mps 725 mmHg 18%
    13:00 +36°C° 0.1 mm 1 mps 724 mmHg 17%
    14:00 +37°C° 0.1 mm 2 mps 724 mmHg 17%
    15:00 +37°C° 0.1 mm 2 mps 724 mmHg 18%
    16:00 +37°C° 0.1 mm 3 mps 724 mmHg 18%
    17:00 +36°C° 0.1 mm 4 mps 724 mmHg 19%
    18:00 +35°C° 0 mm 3 mps 724 mmHg 21%
    19:00 +34°C° 0 mm 3 mps 725 mmHg 24%
    20:00 +33°C° 0 mm 3 mps 725 mmHg 26%
    21:00 +32°C° 0 mm 2 mps 725 mmHg 28%
    22:00 +31°C° 0 mm 2 mps 725 mmHg 30%
    23:00 +30°C° 0 mm 1 mps 724 mmHg 32%
    Show more